Flag for U.S.A. Weather past 2 weeks in Flint, Michigan, U.S.A.

Now
66 °F

Sunny.


Feels Like: 66 °F
Forecast: 40 / 68 °F
Wind: 6 mph from East

Location: Bishop International Airport

Current Time: Sep 19, 2014 at 2:43:20 PM

Latest Report: Sep 19, 2014 at 1:53 PM


Visibility: 10 mi

Pressure: 30.19 "Hg

Humidity: 49%

Dew point: 46 °F

Location of FlintLocation

Historic Weather in Flint — Graph

°F

Flint temperature yesterday

Maximum temperature yesterday: 62 °F (at 11:53 AM)
Minimum temperature yesterday: 45 °F (at 5:53 AM)
Average temperature yesterday: 54 °F

Past Weeks' High & Low Weather Summary

 TemperatureHumidityPressure
High93 °F (Sep 5, 3:53 PM)93% (Sep 13, 9:53 PM)30.36 "Hg (Sep 13, 9:53 PM)
Low37 °F (Sep 19, 4:53 AM)35% (Sep 8, 3:53 PM)29.53 "Hg (Sep 10, 7:53 PM)
Average61 °F73%30.10 "Hg
* Reported Sep 4 12:53 PM — Sep 19 12:53 PM, Flint, Weather by CustomWeather, © 2014

Note: Actual official high and low records may vary slightly from our data, if they occured in-between our weather recording intervals... More about our weather records

Advertising

Flint weather history for previous 24 hours

 ConditionsComfort  
Time TempWeatherWind HumidityBarometerVisibility
12:53 PM
Sep 19
64 °FSunny.6 mph52%30.22 "Hg10 mi
11:53 AM60 °FSunny.6 mph60%30.24 "Hg10 mi
10:53 AM57 °FSunny.5 mph67%30.26 "Hg10 mi
9:53 AM53 °FSunny.5 mph74%30.28 "Hg10 mi
8:53 AM46 °FSunny.No wind86%30.29 "Hg10 mi
7:53 AM40 °FClear.No wind89%30.28 "Hg7 mi
6:53 AM40 °FClear.3 mph93%30.27 "Hg9 mi
5:53 AM40 °FClear.No wind89%30.26 "Hg8 mi
5:01 AM37 °FFog.No wind89%30.25 "Hg2 mi
4:53 AM37 °FFog.No wind93%30.26 "Hg6 mi
3:53 AM41 °FClear.5 mph89%30.26 "Hg7 mi
2:53 AM41 °FClear.No wind93%30.27 "Hg7 mi
1:53 AM43 °FClear.No wind89%30.27 "Hg9 mi
12:53 AM46 °FClear.5 mph83%30.25 "Hg10 mi
11:53 PM
Sep 18
46 °FClear.6 mph83%30.25 "Hg10 mi
10:53 PM49 °FClear.9 mph80%30.24 "Hg10 mi
9:53 PM52 °FClear.10 mph77%30.22 "Hg10 mi
8:53 PM53 °FClear.7 mph77%30.20 "Hg10 mi
7:53 PM55 °FPassing clouds.7 mph72%30.18 "Hg10 mi
6:53 PM59 °FPartly sunny.8 mph67%30.18 "Hg10 mi
5:53 PM60 °FMostly cloudy.7 mph69%30.18 "Hg10 mi
4:53 PM60 °FCloudy.9 mph69%30.18 "Hg10 mi
3:53 PM61 °FPartly sunny.10 mph70%30.18 "Hg10 mi
2:53 PM61 °FMostly cloudy.13 mph70%30.18 "Hg10 mi
Weather by CustomWeather, © 2014

See weather overviewHow to use our weather pages